Погода в Боре

Сербия     44°04′26″N   22°05′56″E
темп.,
°C
ветер,
м/с
пор.,
м/с
влажн.,
%
обл.,
%
осадки,
мм/ч
давл.,
гПа
погр.,
м
21 января, пт
пт2101:000зюз2496100 3.9 1019122
04:00−1з2487100 0.4 102096
07:00−3з2485100 0.4 1023101
10:00−1з397376 0.1 10231203
13:000з6117469 0.6 10221556
16:00−3зсз6126945 0.3 10231252
19:00−4зсз5126457 0.3 10241011
22:00−4зсз613749 0.0 1025875
22 января, сб
сб2201:00−5з4117869 0.1 1024805
04:00−4з4117986 0.9 10231046
07:00−4з5118037 1.5 1023787
10:00−2з497181 0.4 1022931
13:00−2з3883100 2.7 10201005
16:00−2з269082 2.3 1020415
19:00−5зсз35847 2.6 1023120
22:00−4сз412712 0.0 1026598
23 января, вс
вс2301:00−7зсз368014 0.0 1027137
04:00−7з258932 0.1 1027188
07:00−7з378512 0.1 1027240
10:00−3зсз5107134 0.1 1027973
13:00−2сз510689 0.1 10261012
16:00−4зсз3676100 0.0 1027223
19:00−6зсз2684100 0.0 1027268
22:00−7з248611 0.0 1028121
24 января, пн
пн2401:00−6сз258381 0.1 1028172
04:00−6сз238696 0.1 1030100
07:00−9сз228859 0.1 103245
10:00−5в127596 0.0 1033559
13:00−3вюв116786 0.3 1033814
16:00−5юз117785 0.3 103438
19:00−8зсз22876 0.4 103645
22:00−9зсз228410 0.0 103743
25 января, вт
вт2501:00−10зсз228517 0.0 103856
04:00−10зсз238933 0.0 103768
07:00−10з239016 0.0 103877
10:00−5з35695 0.0 1036449
13:00−3зсз36605 0.0 1034631
16:00−6з35785 0.0 1034213
19:00−9з348785 0.0 1034117
22:00−9з348634 0.0 103395